[[{"header":{"parameterUnit":"m.s-1","parameterCategory":1,"la1":30.2991,"la2":30.254,"lo1":-89.0895,"lo2":-89.0444,"dy":0.0017,"dx":0.0017,"nx":28,"ny":28,"refTime":"2024-12-05T09:00:00:Z","depth":0,"parameterNumber":2,"parameterNumberName":"U-component_of_WINDS"},"data":[0,0,0,0,0,0,0,0,0,0,0,0,0,0,0,0,0,0,0,0,0,0,0,0,0,0,0,0,0,0,0,0,0,0,0,0,0,0,0,0,0,0,0,0,0,0,0,0,0,0,0,0,0,0,0,0,0,0,-2.1364,-2.1364,0,-2.1439,-2.144,-2.1441,-2.1404,-2.1402,-2.1401,-2.1399,-2.1478,-2.1482,-2.1485,0,0,0,0,0,0,0,0,0,0,0,0,0,-2.1189,-2.1193,-2.1363,-2.1364,-2.1365,-2.1439,-2.144,-2.1441,-2.1405,-2.1402,-2.14,-2.1398,-2.1476,-2.1481,-2.1486,0,0,0,0,0,0,0,0,0,0,0,0,0,-2.1265,-2.1194,-2.1363,-2.1356,-2.1356,-2.1439,-2.144,-2.1441,-2.1405,-2.1402,-2.1399,-2.1397,-2.1475,-2.1481,-2.1486,-2.1581,0,0,-2.1504,-2.1507,0,0,0,0,0,0,0,0,-2.1261,-2.1271,-2.1356,-2.1357,-2.1357,-2.1409,-2.1407,-2.1488,-2.1406,-2.1387,-2.1399,-2.1395,-2.1457,-2.1465,-2.1485,-2.1584,-2.1588,-2.1505,-2.1508,-2.1511,-2.1513,0,0,0,0,0,0,0,-2.1256,-2.1268,-2.1393,-2.1358,-2.1358,-2.135,-2.1357,-2.1422,-2.1438,-2.1388,-2.1386,-2.1395,-2.1457,-2.148,-2.1487,-2.1589,-2.1505,-2.151,-2.1513,-2.1516,-2.1769,-2.1772,0,0,0,0,0,0,-2.125,-2.1264,-2.1391,-2.1396,-2.1301,-2.1355,-2.1363,-2.1395,-2.1437,-2.144,-2.1397,-2.1393,-2.1471,-2.148,-2.1489,-2.1603,-2.1511,-2.1516,-2.152,-2.1766,-2.177,-2.1773,0,0,0,0,0,0,-2.1247,-2.1262,-2.1388,-2.1329,-2.1344,-2.1361,-2.1397,-2.1398,-2.1421,-2.1444,-2.1446,-2.1418,-2.1469,-2.1481,-2.1558,-2.1605,-2.1519,-2.1524,-2.1762,-2.1767,-2.1772,-2.1831,0,0,0,0,0,0,-2.1242,-2.1261,-2.1297,-2.133,-2.1348,-2.1455,-2.14,-2.1402,-2.1431,-2.1426,-2.1463,-2.1467,-2.1468,-2.155,-2.1564,-2.1612,-2.1529,-2.1758,-2.1765,-2.177,-2.1825,-2.1837,-2.1848,0,0,0,0,0,-2.1236,-2.1311,-2.1299,-2.1314,-2.1393,-2.1458,-2.1468,-2.1467,-2.1435,-2.1471,-2.1486,-2.1465,-2.1597,-2.1558,-2.1574,-2.1624,-2.1755,-2.1763,-2.177,-2.182,-2.1835,-2.1847,0,0,0,0,0,0,-2.1284,-2.1315,-2.1302,-2.139,-2.1422,-2.1452,-2.1498,-2.1483,-2.1525,-2.1519,-2.1516,-2.1525,-2.1605,-2.1622,-2.1577,-2.1717,-2.1671,-2.1682,-2.1704,-2.1718,-2.173,-2.1725,-2.1534,0,0,0,0,0,-2.1304,-2.1354,-2.1379,-2.1454,-2.1471,-2.1482,-2.151,-2.1506,-2.1539,-2.1553,-2.1573,-2.1606,-2.1655,-2.1687,-2.1733,-2.1826,-2.1834,-2.1869,-2.188,-2.1889,-2.1899,-2.195,-2.1966,-2.1797,-2.1797,-2.1797,0,0,-2.1348,-2.1371,-2.1403,-2.1465,-2.1489,-2.1541,-2.1493,-2.1551,-2.159,-2.1562,-2.1636,-2.1651,-2.1688,-2.1774,-2.1812,-2.179,-2.1947,-2.1898,-2.1906,-2.1911,-2.1959,-2.1975,-2.199,-2.1802,-2.1801,-2.18,0,0,-2.1454,-2.1476,-2.1542,-2.1567,-2.1603,-2.161,-2.1625,-2.1658,-2.1667,-2.1741,-2.1721,-2.1767,-2.1851,-2.1878,-2.1903,-2.2018,-2.2002,-2.2033,-2.2094,-2.2143,-2.2157,-2.2169,-2.2211,-2.2226,-2.2042,-2.2043,-2.2043,0,-2.1504,-2.1582,-2.1578,-2.1637,-2.1665,-2.164,-2.1707,-2.1731,-2.1781,-2.1801,-2.1775,-2.1879,-2.1902,-2.1994,-2.2022,-2.2042,-2.2061,-2.203,-2.2155,-2.2167,-2.2178,-2.2218,-2.2234,-2.2046,-2.2046,-2.2045,-2.2045,0,-2.1642,-2.1696,-2.1745,-2.1793,-2.1826,-2.1889,-2.1894,-2.1928,-2.1921,-2.193,-2.2006,-2.2032,-2.2083,-2.2104,-2.2098,-2.2195,-2.2181,-2.2155,-2.2109,-2.2198,-2.2236,-2.2251,-2.2052,-2.205,-2.2049,-2.2048,0,0,-2.1784,-2.1827,-2.1845,-2.1867,-2.1905,-2.1947,-2.2008,-2.2057,-2.2087,-2.2121,-2.2174,-2.2244,-2.222,-2.2249,-2.2245,-2.2288,-2.2379,-2.2257,-2.2258,-2.2281,-2.2489,-2.251,-2.2528,-2.2367,-2.237,-2.2372,-2.2487,0,-2.1894,-2.2001,-2.1998,-2.2098,-2.2148,-2.2125,-2.2178,-2.2207,-2.2217,-2.2261,-2.2272,-2.2323,-2.2287,-2.2304,-2.2345,-2.2359,-2.2422,-2.2351,-2.2417,-2.2419,-2.2411,-2.2548,-2.257,-2.2677,-2.2501,-2.2504,-2.2506,0,-2.2038,-2.2077,-2.2182,-2.2212,-2.2233,-2.2281,-2.2326,-2.2368,-2.24,-2.2404,-2.2435,-2.2424,-2.2487,-2.2437,-2.2523,-2.2475,-2.2502,-2.2512,-2.2516,-2.2525,-2.247,-2.2561,-2.271,-2.2727,-2.2529,-2.2527,-2.2525,0,-2.2133,-2.2211,-2.2284,-2.2303,-2.2339,-2.2374,-2.2391,-2.242,-2.245,-2.2489,-2.2508,-2.2554,-2.2579,-2.2615,-2.2617,-2.258,-2.2705,-2.2655,-2.2711,-2.2711,-2.274,-2.2739,-2.2898,-2.2754,-2.2753,-2.2753,-2.2753,0,-2.2258,-2.2323,-2.2327,-2.2372,-2.2445,-2.244,-2.2512,-2.2526,-2.2552,-2.2599,-2.2581,-2.2626,-2.2625,-2.2671,-2.2672,-2.2744,-2.2755,-2.2761,-2.2761,-2.2764,-2.2764,-2.2783,-2.2777,-2.2757,-2.2756,-2.2756,-2.2755,0,-2.2377,-2.2382,-2.246,-2.2488,-2.2496,-2.2548,-2.2572,-2.2615,-2.2622,-2.2683,-2.2697,-2.2709,-2.2762,-2.2766,-2.2828,-2.2829,-2.2916,-2.2907,-2.2906,-2.2905,-2.2961,-2.2956,-2.314,-2.3164,-2.3002,-2.3004,-2.3005,0,-2.2458,-2.2507,-2.254,-2.257,-2.2589,-2.2638,-2.2668,-2.2664,-2.2696,-2.2736,-2.2775,-2.2826,-2.2867,-2.2952,-2.2967,-2.3014,-2.3007,-2.3068,-2.3014,-2.3015,-2.301,-2.3008,-2.3013,-2.3079,-2.3081,-2.3082,-2.3084,0,-2.2601,-2.2601,-2.2644,-2.2689,-2.2725,-2.276,-2.2793,-2.2818,-2.2819,-2.2856,-2.2909,-2.2941,-2.3003,-2.3054,-2.31,-2.3118,-2.3102,-2.31,-2.3116,-2.312,-2.3118,-2.3122,-2.2936,-2.3096,-2.3095,-2.3094,-2.3093,-2.3093,-2.2705,-2.2748,-2.2778,-2.2827,-2.2851,-2.2881,-2.2923,-2.2935,-2.2979,-2.303,-2.3025,-2.3084,-2.3115,-2.3174,-2.3195,-2.3242,-2.3221,-2.3244,-2.325,-2.3256,-2.3263,-2.3108,-2.325,-2.3249,-2.3249,-2.3249,-2.3248,0,-2.2849,-2.2866,-2.2911,-2.2957,-2.2996,-2.2975,-2.301,-2.3044,-2.3096,-2.3126,-2.3166,-2.3227,-2.3276,-2.3294,-2.3342,-2.3376,-2.337,-2.3389,-2.3387,-2.3392,-2.3277,-2.326,-2.3393,-2.3393,-2.3393,-2.3393,-2.3393,-2.3393,-2.2928,-2.3001,-2.3004,-2.3087,-2.3104,-2.3162,-2.3184,-2.3212,-2.3236,-2.3305,-2.3345,-2.3356,-2.3381,-2.343,-2.3474,-2.3478,-2.3497,-2.352,-2.3521,-2.3414,-2.34,-2.3386,-2.337,-2.3524,-2.3524,-2.3632,-2.3633,-2.3634]},{"header":{"parameterUnit":"m.s-1","parameterCategory":1,"la1":30.2991,"la2":30.254,"lo1":-89.0895,"lo2":-89.0444,"dy":0.0017,"dx":0.0017,"nx":28,"ny":28,"refTime":"2024-12-05T09:00:00:Z","depth":0,"parameterNumber":3,"parameterNumberName":"V-component_of_WINDS"},"data":[0,0,0,0,0,0,0,0,0,0,0,0,0,0,0,0,0,0,0,0,0,0,0,0,0,0,0,0,0,0,0,0,0,0,0,0,0,0,0,0,0,0,0,0,0,0,0,0,0,0,0,0,0,0,0,0,0,0,-6.7812,-6.7813,0,-6.7892,-6.7893,-6.7894,-6.7825,-6.7822,-6.7819,-6.7816,-6.7893,-6.7898,-6.7902,0,0,0,0,0,0,0,0,0,0,0,0,0,-6.7593,-6.7598,-6.7812,-6.7813,-6.7814,-6.7892,-6.7893,-6.7894,-6.7825,-6.7822,-6.7818,-6.7815,-6.7892,-6.7897,-6.7903,0,0,0,0,0,0,0,0,0,0,0,0,0,-6.7682,-6.7599,-6.7812,-6.7789,-6.7788,-6.7892,-6.7893,-6.7894,-6.7826,-6.7822,-6.7817,-6.7814,-6.789,-6.7897,-6.7904,-6.8032,0,0,-6.7925,-6.7928,0,0,0,0,0,0,0,0,-6.7677,-6.769,-6.7791,-6.7791,-6.779,-6.7844,-6.7844,-6.794,-6.7827,-6.7811,-6.7816,-6.7811,-6.788,-6.7887,-6.7912,-6.8036,-6.8039,-6.7926,-6.793,-6.7933,-6.7935,0,0,0,0,0,0,0,-6.7671,-6.7686,-6.7843,-6.7793,-6.7792,-6.7773,-6.7781,-6.7862,-6.7868,-6.7812,-6.7808,-6.7818,-6.7879,-6.7905,-6.7913,-6.804,-6.7925,-6.7932,-6.7936,-6.7939,-6.8273,-6.8277,0,0,0,0,0,0,-6.7668,-6.7682,-6.7841,-6.7846,-6.7722,-6.778,-6.7789,-6.7831,-6.7867,-6.7869,-6.7822,-6.7815,-6.7895,-6.7905,-6.7915,-6.8068,-6.7933,-6.7939,-6.7943,-6.8268,-6.8274,-6.8279,0,0,0,0,0,0,-6.7664,-6.7683,-6.7837,-6.7762,-6.7781,-6.7789,-6.7836,-6.7835,-6.7861,-6.7875,-6.7875,-6.7848,-6.7892,-6.7905,-6.8004,-6.807,-6.7943,-6.7949,-6.8263,-6.827,-6.8276,-6.8376,0,0,0,0,0,0,-6.7658,-6.7682,-6.7732,-6.7764,-6.7785,-6.7927,-6.784,-6.7839,-6.7874,-6.7866,-6.7899,-6.7901,-6.789,-6.7994,-6.8011,-6.8077,-6.7954,-6.8257,-6.8266,-6.8274,-6.8366,-6.8385,-6.8401,0,0,0,0,0,-6.765,-6.7756,-6.7735,-6.7755,-6.7849,-6.7931,-6.7942,-6.7929,-6.788,-6.793,-6.7938,-6.79,-6.806,-6.8004,-6.8023,-6.8093,-6.8253,-6.8263,-6.8274,-6.8359,-6.8381,-6.8401,0,0,0,0,0,0,-6.7729,-6.7759,-6.7737,-6.7856,-6.7892,-6.7919,-6.7981,-6.7954,-6.8002,-6.7992,-6.7972,-6.798,-6.8084,-6.8098,-6.8036,-6.8219,-6.8148,-6.8163,-6.8206,-6.8228,-6.8245,-6.824,-6.796,0,0,0,0,0,-6.7761,-6.7827,-6.7849,-6.7952,-6.7971,-6.7974,-6.8009,-6.7996,-6.8031,-6.8045,-6.806,-6.8094,-6.8152,-6.8191,-6.8245,-6.8368,-6.8374,-6.8425,-6.8442,-6.8456,-6.8469,-6.8535,-6.8558,-6.8313,-6.8313,-6.8313,0,0,-6.7826,-6.7851,-6.7893,-6.7969,-6.7994,-6.8062,-6.7986,-6.8061,-6.811,-6.8055,-6.815,-6.8163,-6.8199,-6.831,-6.836,-6.8325,-6.8538,-6.847,-6.8481,-6.8486,-6.8548,-6.8571,-6.8592,-6.832,-6.8319,-6.8318,0,0,-6.798,-6.8006,-6.8095,-6.8123,-6.8163,-6.8164,-6.8186,-6.8217,-6.8224,-6.8319,-6.828,-6.8337,-6.8437,-6.8465,-6.8492,-6.8656,-6.8622,-6.8674,-6.8765,-6.8829,-6.8848,-6.8865,-6.8924,-6.8945,-6.8687,-6.8687,-6.8687,0,-6.8056,-6.8158,-6.8143,-6.8221,-6.8255,-6.821,-6.8299,-6.8326,-6.8382,-6.8405,-6.8366,-6.8491,-6.8512,-6.8629,-6.867,-6.8693,-6.8716,-6.867,-6.8847,-6.8864,-6.8879,-6.8935,-6.8957,-6.8693,-6.8692,-6.8692,-6.8691,0,-6.8249,-6.832,-6.8386,-6.8444,-6.8484,-6.8567,-6.8564,-6.8607,-6.859,-6.8595,-6.8691,-6.8715,-6.8773,-6.88,-6.8784,-6.8915,-6.8892,-6.885,-6.8779,-6.8909,-6.8961,-6.8982,-6.8702,-6.87,-6.8698,-6.8696,0,0,-6.8455,-6.8504,-6.8528,-6.8554,-6.8596,-6.8649,-6.8729,-6.8788,-6.8825,-6.8865,-6.8931,-6.9017,-6.8978,-6.9009,-6.8995,-6.9052,-6.918,-6.9002,-6.9003,-6.9035,-6.9326,-6.9358,-6.9383,-6.9158,-6.9162,-6.9165,-6.9323,0,-6.861,-6.8753,-6.8742,-6.8875,-6.8941,-6.8899,-6.8968,-6.9001,-6.9007,-6.9061,-6.9067,-6.9129,-6.9073,-6.9092,-6.9146,-6.9153,-6.9239,-6.9142,-6.9218,-6.9221,-6.9211,-6.941,-6.9444,-6.9592,-6.9343,-6.9347,-6.9349,0,-6.8812,-6.8861,-6.9001,-6.9034,-6.906,-6.9124,-6.9176,-6.9229,-6.9264,-6.9265,-6.93,-6.9276,-6.9355,-6.9282,-6.939,-6.9324,-6.9354,-6.9363,-6.9368,-6.9375,-6.9294,-6.9422,-6.9639,-6.9661,-6.9381,-6.9378,-6.9376,0,-6.8948,-6.9049,-6.9146,-6.9169,-6.9209,-6.9254,-6.9273,-6.9304,-6.934,-6.9385,-6.9408,-6.9461,-6.949,-6.9531,-6.9522,-6.947,-6.9632,-6.9558,-6.9634,-6.9634,-6.967,-6.9668,-6.9895,-6.969,-6.9689,-6.9689,-6.9688,0,-6.9124,-6.9212,-6.9208,-6.9268,-6.9365,-6.9351,-6.9446,-6.9458,-6.9486,-6.9546,-6.9512,-6.9569,-6.9554,-6.9609,-6.9602,-6.9692,-6.9705,-6.9707,-6.9704,-6.9711,-6.9711,-6.973,-6.972,-6.9695,-6.9693,-6.9692,-6.9691,0,-6.9293,-6.9295,-6.9398,-6.9428,-6.9437,-6.9507,-6.9531,-6.9587,-6.959,-6.9667,-6.9684,-6.9689,-6.9752,-6.9747,-6.9818,-6.9813,-6.9925,-6.991,-6.9914,-6.9911,-6.9987,-6.998,-7.0235,-7.0267,-7.0041,-7.0043,-7.0045,0,-6.9405,-6.9472,-6.951,-6.9549,-6.9571,-6.9634,-6.9671,-6.9659,-6.9698,-6.9743,-6.9793,-6.9854,-6.9902,-7.0006,-7.0014,-7.0068,-7.0054,-7.0139,-7.0062,-7.0066,-7.0055,-7.0052,-7.0058,-7.0155,-7.0157,-7.0159,-7.0161,0,-6.9605,-6.9602,-6.9658,-6.9715,-6.9761,-6.9804,-6.9843,-6.9876,-6.9868,-6.9914,-6.998,-7.0018,-7.0091,-7.0151,-7.0203,-7.0219,-7.0189,-7.0186,-7.0206,-7.0213,-7.0213,-7.0215,-6.9957,-7.018,-7.0178,-7.0177,-7.0176,-7.0175,-6.9749,-6.9806,-6.9842,-6.9906,-6.9934,-6.9972,-7.0026,-7.0037,-7.0092,-7.0153,-7.0141,-7.0215,-7.0247,-7.0313,-7.0335,-7.0391,-7.036,-7.0389,-7.0397,-7.0405,-7.0414,-7.0204,-7.04,-7.0399,-7.0399,-7.0398,-7.0398,0,-6.9946,-6.9968,-7.0026,-7.0084,-7.0133,-7.0102,-7.0144,-7.0187,-7.0253,-7.0286,-7.0335,-7.041,-7.0469,-7.0482,-7.0538,-7.058,-7.0568,-7.0595,-7.0592,-7.0596,-7.0438,-7.0415,-7.0605,-7.0605,-7.0605,-7.0605,-7.0604,-7.0604,-7.0055,-7.0151,-7.0153,-7.0262,-7.0282,-7.0356,-7.0382,-7.0416,-7.0443,-7.053,-7.0579,-7.0588,-7.0613,-7.067,-7.0722,-7.0724,-7.0746,-7.078,-7.0776,-7.0628,-7.0608,-7.0588,-7.0566,-7.0784,-7.0785,-7.093,-7.0931,-7.0932]}]]